PA5MB-15 Weather Reports


time (UTC)temp
C
wind
direction
speed
KPH
gust
KPH
rain 1hr
cm
rain 24hr
cm
rain mn
cm
humidity
%
barometer
mb
20260506214029 11 352 1.6 4.8 0.00 0.00 0.00 75 1013.9
20260506213533 11 354 1.6 6.4 0.00 0.00 0.00 77 1013.9
20260506213029 11 311 0.0 0.0 0.00 0.00 0.00 78 1013.8
20260506212542 11 308 0.0 0.0 0.00 0.00 0.00 78 1013.8
20260506212037 11 306 0.0 0.0 0.00 0.00 0.00 78 1013.7
20260506211529 11 306 0.0 0.0 0.00 0.00 0.00 79 1013.7
20260506211100 11 306 0.0 0.0 0.00 0.00 0.00 79 1013.7
20260506210529 11 306 0.0 0.0 0.00 0.00 0.00 79 1013.6
20260506210025 11 306 0.0 0.0 0.00 0.00 0.00 80 1013.5
20260506205529 11 306 0.0 0.0 0.00 0.00 0.00 79 1013.5
20260506205029 11 306 0.0 0.0 0.00 0.00 0.00 79 1013.5
20260506204529 11 306 0.0 0.0 0.00 0.00 0.00 78 1013.4
20260506204029 11 306 0.0 0.0 0.00 0.00 0.00 77 1013.4
20260506203529 11 306 0.0 0.0 0.00 0.00 0.00 77 1013.5
20260506203048 11 306 0.0 0.0 0.00 0.00 0.00 77 1013.5
20260506202529 11 306 0.0 0.0 0.00 0.00 0.00 75 1013.4
20260506202029 11 308 0.0 0.0 0.00 0.00 0.00 74 1013.4
20260506201529 11 308 0.0 0.0 0.00 0.00 0.00 74 1013.3
20260506201030 11 308 0.0 0.0 0.00 0.00 0.00 73 1013.4
20260506200529 11 308 0.0 0.0 0.00 0.00 0.00 73 1013.4
20260506200029 11 305 0.0 0.0 0.00 0.00 0.00 72 1013.3
20260506195529 11 308 0.0 0.0 0.00 0.00 0.00 72 1013.3
20260506195029 11 308 0.0 0.0 0.00 0.00 0.00 71 1013.3
20260506194523 11 308 0.0 0.0 0.00 0.00 0.00 71 1013.2
20260506194029 11 300 0.0 0.0 0.00 0.00 0.00 71 1013.2
20260506193529 11 300 0.0 3.2 0.00 0.00 0.00 71 1013.2
20260506193046 11 299 1.6 4.8 0.00 0.00 0.00 70 1013.1
20260506192529 11 228 0.0 1.6 0.00 0.00 0.00 71 1013.1
20260506192029 11 228 0.0 0.0 0.00 0.00 0.00 71 1013.0
20260506191529 11 228 0.0 0.0 0.00 0.00 0.00 70 1012.9
20260506191021 11 228 0.0 0.0 0.00 0.00 0.00 70 1012.8
20260506190526 11 230 0.0 1.6 0.00 0.00 0.00 70 1012.7
20260506190033 12 230 0.0 0.0 0.00 0.00 0.00 69 1012.7
20260506185530 12 230 1.6 3.2 0.00 0.00 0.00 69 1012.7
20260506185024 12 228 0.0 3.2 0.00 0.00 0.00 68 1012.6
20260506184529 12 230 0.0 3.2 0.00 0.00 0.00 68 1012.5
20260506184029 12 216 0.0 3.2 0.00 0.00 0.00 68 1012.5
20260506183529 12 353 1.6 4.8 0.00 0.00 0.00 68 1012.4
20260506183032 12 342 1.6 4.8 0.00 0.00 0.00 68 1012.4
20260506182542 12 278 1.6 3.2 0.00 0.00 0.00 67 1012.3
20260506182059 12 316 0.0 0.0 0.00 0.00 0.00 67 1012.3
20260506181544 12 305 0.0 3.2 0.00 0.00 0.00 67 1012.2
20260506181035 12 310 1.6 4.8 0.00 0.00 0.00 67 1012.2
20260506180529 12 322 1.6 4.8 0.00 0.00 0.00 66 1012.1
20260506180029 12 317 1.6 3.2 0.00 0.00 0.00 66 1012.0
20260506175530 12 316 1.6 3.2 0.00 0.00 0.00 66 1012.0
20260506175029 12 267 3.2 4.8 0.00 0.00 0.00 65 1011.9
20260506174548 12 53 3.2 4.8 0.00 0.00 0.00 66 1011.9
20260506174035 12 122 1.6 4.8 0.00 0.00 0.00 65 1011.8
20260506173523 12 141 0.0 3.2 0.00 0.00 0.00 66 1011.8
20260506173029 12 166 1.6 3.2 0.00 0.00 0.00 65 1011.8
20260506172529 12 340 3.2 8.0 0.00 0.00 0.00 64 1011.7
20260506172035 12 2 3.2 8.0 0.00 0.00 0.00 64 1011.7
20260506171525 12 353 4.8 8.0 0.00 0.00 0.00 65 1011.7
20260506171046 12 339 3.2 8.0 0.00 0.00 0.00 66 1011.7
20260506170533 12 332 3.2 8.0 0.00 0.00 0.00 66 1011.6
20260506170029 12 331 4.8 8.0 0.00 0.00 0.00 65 1011.6
20260506165529 12 349 4.8 9.7 0.00 0.00 0.00 65 1011.5
20260506165045 12 15 3.2 8.0 0.00 0.00 0.00 65 1011.5
20260506164529 12 352 4.8 8.0 0.00 0.00 0.00 65 1011.5
20260506164033 12 338 3.2 8.0 0.00 0.00 0.00 65 1011.5
20260506163535 12 327 3.2 9.7 0.00 0.00 0.00 65 1011.5
20260506163025 12 355 4.8 9.7 0.00 0.00 0.00 65 1011.4
20260506162559 12 345 4.8 9.7 0.00 0.00 0.00 65 1011.4
20260506162029 12 353 3.2 8.0 0.00 0.00 0.00 65 1011.4
20260506161530 12 3 4.8 8.0 0.00 0.00 0.00 65 1011.4
20260506161107 12 360 4.8 9.7 0.00 0.00 0.00 64 1011.4
20260506160529 12 355 4.8 8.0 0.00 0.00 0.00 64 1011.4
20260506160024 12 350 4.8 11.3 0.00 0.00 0.00 63 1011.4
20260506155529 13 353 4.8 8.0 0.00 0.00 0.00 62 1011.4
20260506155030 12 0 4.8 9.7 0.00 0.00 0.00 62 1011.4
20260506154534 13 353 6.4 14.5 0.00 0.00 0.00 61 1011.4
20260506154025 13 348 6.4 11.3 0.00 0.00 0.00 61 1011.4
20260506153529 13 358 4.8 8.0 0.00 0.00 0.00 62 1011.4
20260506153042 13 0 6.4 9.7 0.00 0.00 0.00 61 1011.4
20260506152529 13 346 6.4 12.9 0.00 0.00 0.00 61 1011.4
20260506152029 13 350 6.4 12.9 0.00 0.00 0.00 60 1011.4
20260506151529 13 346 6.4 16.1 0.00 0.00 0.00 59 1011.3
20260506151024 13 0 4.8 8.0 0.00 0.00 0.00 58 1011.3
20260506150533 13 357 4.8 9.7 0.00 0.00 0.00 57 1011.2
20260506150034 13 357 6.4 9.7 0.00 0.00 0.00 58 1011.2
20260506145529 13 339 4.8 8.0 0.00 0.00 0.00 57 1011.2
20260506145042 14 341 6.4 9.7 0.00 0.00 0.00 56 1011.1
20260506144529 14 343 6.4 16.1 0.00 0.00 0.00 56 1011.0
20260506144030 13 343 6.4 11.3 0.00 0.00 0.00 56 1011.1
20260506143529 13 325 6.4 9.7 0.00 0.00 0.00 56 1011.1
20260506143026 13 343 6.4 9.7 0.00 0.00 0.00 57 1011.1
20260506142607 13 345 6.4 17.7 0.00 0.00 0.00 57 1011.1
20260506142029 13 356 4.8 9.7 0.00 0.00 0.00 58 1011.1
20260506141529 13 344 4.8 8.0 0.00 0.00 0.00 59 1011.0
20260506141031 13 338 6.4 9.7 0.00 0.00 0.00 61 1011.0
20260506140529 13 360 3.2 8.0 0.00 0.00 0.00 62 1011.0
20260506140029 13 347 3.2 8.0 0.00 0.00 0.00 62 1011.0
20260506135521 13 359 4.8 9.7 0.00 0.00 0.00 62 1011.0
20260506135029 13 10 4.8 11.3 0.00 0.00 0.00 64 1011.0
20260506134529 13 339 4.8 8.0 0.00 0.00 0.00 64 1010.9
20260506134029 14 339 4.8 8.0 0.00 0.00 0.00 63 1010.9
20260506133533 13 348 4.8 9.7 0.00 0.00 0.00 64 1010.9
20260506133029 13 359 6.4 9.7 0.00 0.00 0.00 63 1010.9
20260506132530 14 339 6.4 9.7 0.00 0.00 0.00 62 1010.8
20260506132029 15 356 6.4 11.3 0.00 0.00 0.00 60 1010.8
20260506131522 15 344 4.8 8.0 0.00 0.00 0.00 61 1010.8
20260506131031 15 353 4.8 8.0 0.00 0.00 0.00 60 1010.8
20260506130529 14 349 6.4 9.7 0.00 0.00 0.00 62 1010.7
20260506130033 14 3 6.4 9.7 0.00 0.00 0.00 62 1010.7
20260506125532 15 348 6.4 11.3 0.00 0.00 0.00 62 1010.7
20260506125021 14 346 4.8 9.7 0.00 0.00 0.00 62 1010.6
20260506124538 14 344 6.4 11.3 0.00 0.00 0.00 63 1010.6
20260506124033 13 2 4.8 8.0 0.00 0.00 0.00 64 1010.6
20260506123527 13 359 6.4 12.9 0.00 0.00 0.00 65 1010.6
20260506123032 14 345 4.8 9.7 0.00 0.00 0.00 66 1010.5
20260506122533 14 4 6.4 9.7 0.00 0.00 0.00 64 1010.5
20260506122032 14 357 6.4 17.7 0.00 0.00 0.00 64 1010.5
20260506121529 14 358 6.4 9.7 0.00 0.00 0.00 64 1010.5
20260506121030 14 356 4.8 8.0 0.00 0.00 0.00 63 1010.4
20260506120533 13 359 4.8 9.7 0.00 0.00 0.00 64 1010.4
20260506120032 13 350 6.4 12.9 0.00 0.00 0.00 67 1010.4
20260506115533 14 356 8.0 14.5 0.00 0.00 0.00 65 1010.4
20260506115033 15 348 4.8 8.0 0.00 0.00 0.00 59 1010.3
20260506114533 15 336 4.8 11.3 0.00 0.00 0.00 59 1010.3
20260506114033 14 8 6.4 11.3 0.00 0.00 0.00 59 1010.3
20260506113532 14 347 6.4 11.3 0.00 0.00 0.00 59 1010.3
20260506113034 14 355 4.8 9.7 0.00 0.00 0.00 61 1010.3
20260506112535 14 350 4.8 11.3 0.00 0.00 0.00 61 1010.3
20260506112032 14 354 4.8 9.7 0.00 0.00 0.00 61 1010.3
20260506111527 15 332 6.4 17.7 0.00 0.00 0.00 58 1010.3
20260506111038 15 351 6.4 12.9 0.00 0.00 0.00 56 1010.3
20260506110529 15 340 4.8 9.7 0.00 0.00 0.00 58 1010.2
20260506110034 15 342 6.4 11.3 0.00 0.00 0.00 59 1010.2
20260506105525 15 14 3.2 8.0 0.00 0.00 0.00 60 1010.2
20260506105032 15 353 4.8 9.7 0.00 0.00 0.00 61 1010.3
20260506104533 14 355 4.8 11.3 0.00 0.00 0.00 63 1010.3
20260506104024 14 343 6.4 11.3 0.00 0.00 0.00 63 1010.3
20260506103532 15 338 6.4 11.3 0.00 0.00 0.00 62 1010.3
20260506103030 14 357 4.8 11.3 0.00 0.00 0.00 63 1010.3
20260506102545 14 360 6.4 9.7 0.00 0.00 0.00 64 1010.2
20260506102034 13 8 4.8 8.0 0.00 0.00 0.00 65 1010.2
20260506101532 13 358 4.8 9.7 0.00 0.00 0.00 67 1010.2
20260506101030 13 344 6.4 11.3 0.00 0.00 0.00 67 1010.2
20260506100532 13 348 4.8 11.3 0.00 0.00 0.00 67 1010.1
20260506100024 13 2 4.8 16.1 0.00 0.00 0.00 71 1010.1
20260506095532 13 346 4.8 9.7 0.00 0.00 0.00 73 1010.1
20260506095037 13 3 4.8 9.7 0.00 0.00 0.00 73 1010.1
20260506094533 13 341 4.8 8.0 0.00 0.00 0.00 74 1010.0
20260506094024 13 344 4.8 9.7 0.00 0.00 0.00 74 1010.1
20260506093530 13 349 4.8 8.0 0.00 0.00 0.00 75 1010.1
20260506093033 13 332 4.8 8.0 0.00 0.00 0.00 76 1010.1
20260506092533 13 352 4.8 9.7 0.00 0.00 0.00 76 1010.0
20260506092025 13 353 6.4 11.3 0.00 0.00 0.00 74 1010.0
20260506091534 13 352 8.0 16.1 0.00 0.00 0.00 74 1010.0
20260506091032 13 353 6.4 11.3 0.00 0.00 0.00 74 1010.0
20260506090530 13 339 6.4 9.7 0.00 0.00 0.00 73 1010.0
20260506090034 13 355 4.8 8.0 0.00 0.00 0.00 75 1010.0
20260506085532 13 348 6.4 8.0 0.00 0.00 0.00 75 1009.9
20260506085058 12 357 4.8 9.7 0.00 0.00 0.00 80 1009.9
20260506084532 12 352 4.8 9.7 0.00 0.00 0.00 81 1009.9
20260506084026 12 358 4.8 9.7 0.00 0.00 0.00 82 1009.9
20260506083533 12 339 3.2 11.3 0.00 0.00 0.00 83 1009.9
20260506083032 12 357 6.4 12.9 0.00 0.00 0.00 83 1009.9
20260506082532 12 354 4.8 11.3 0.00 0.00 0.00 83 1009.9
20260506082036 12 343 4.8 9.7 0.00 0.00 0.00 84 1009.8
20260506081529 12 357 4.8 8.0 0.00 0.00 0.00 84 1009.8
20260506081032 12 1 6.4 11.3 0.00 0.00 0.00 85 1009.9
20260506080532 11 349 3.2 8.0 0.00 0.00 0.00 86 1009.8
20260506073032 11 355 6.4 11.3 0.00 0.00 0.00 88 1009.7
20260506072521 11 342 6.4 14.5 0.00 0.00 0.00 88 1009.7
20260506072032 11 1 4.8 9.7 0.00 0.00 0.00 88 1009.7
20260506071532 11 353 3.2 9.7 0.00 0.00 0.00 88 1009.8
20260506071044 11 343 3.2 9.7 0.00 0.00 0.00 88 1009.8
20260506070532 11 352 4.8 8.0 0.00 0.00 0.00 89 1009.7
20260506062032 10 337 3.2 8.0 0.00 0.00 0.00 93 1009.6
20260506061532 10 330 1.6 6.4 0.00 0.00 0.00 93 1009.5
20260506061025 10 2 1.6 6.4 0.00 0.00 0.00 94 1009.5
20260506060529 10 338 1.6 6.4 0.00 0.00 0.00 94 1009.5
20260506051033 9 348 3.2 8.0 0.00 0.00 0.00 95 1009.6
20260506050532 9 360 1.6 8.0 0.00 0.00 0.00 96 1009.5
20260506045037 9 354 3.2 8.0 0.00 0.00 0.00 96 1009.5
20260506044544 9 356 3.2 8.0 0.00 0.00 0.00 96 1009.5
20260506044035 9 360 4.8 8.0 0.00 0.00 0.00 96 1009.5
20260506043525 9 352 3.2 8.0 0.00 0.00 0.00 96 1009.5
20260506043032 8 336 4.8 8.0 0.00 0.00 0.00 96 1009.5
20260506042557 8 352 3.2 8.0 0.00 0.00 0.00 96 1009.5
20260506042032 8 360 4.8 9.7 0.00 0.00 0.00 96 1009.5
20260506041532 8 0 3.2 8.0 0.00 0.00 0.00 96 1009.5
20260506041021 8 358 4.8 9.7 0.00 0.00 0.00 97 1009.5
20260506040530 8 352 3.2 8.0 0.00 0.00 0.00 96 1009.5
20260506040032 9 2 3.2 8.0 0.00 0.00 0.00 96 1009.5
20260506035531 9 349 3.2 8.0 0.00 0.00 0.00 96 1009.5
20260506035032 9 5 3.2 8.0 0.00 0.00 0.00 96 1009.6
20260506034529 9 8 1.6 4.8 0.00 0.00 0.00 96 1009.7
20260506034044 9 4 3.2 6.4 0.00 0.00 0.00 95 1009.7
20260506033534 9 10 4.8 11.3 0.00 0.00 0.00 95 1009.7
20260506033023 9 356 3.2 6.4 0.00 0.00 0.00 95 1009.8
20260506032542 9 345 1.6 4.8 0.00 0.00 0.00 94 1009.7
20260506032024 9 15 3.2 8.0 0.00 0.00 0.00 94 1009.8
20260506031532 9 357 3.2 8.0 0.00 0.00 0.00 92 1009.8
20260506031032 9 11 3.2 6.4 0.00 0.00 0.00 91 1009.7
20260506030544 9 11 1.6 6.4 0.00 0.00 0.00 90 1009.7
20260506030025 10 344 1.6 6.4 0.00 0.00 0.00 90 1009.8
20260506025530 10 337 3.2 6.4 0.00 0.00 0.00 89 1009.8
20260506025044 10 0 1.6 6.4 0.00 0.00 0.00 89 1009.8
20260506024532 10 335 1.6 4.8 0.00 0.00 0.00 89 1009.8
20260506024032 10 335 1.6 6.4 0.00 0.00 0.00 88 1009.9
20260506023532 10 348 3.2 4.8 0.00 0.00 0.00 88 1009.9
20260506023029 10 328 3.2 8.0 0.00 0.00 0.00 88 1009.9
20260506022556 10 351 3.2 8.0 0.00 0.00 0.00 88 1010.0
20260506022033 10 341 1.6 4.8 0.00 0.00 0.00 88 1010.0
20260506021532 10 342 0.0 6.4 0.00 0.00 0.00 88 1009.9
20260506021026 10 351 3.2 6.4 0.00 0.00 0.00 88 1009.9
20260506020532 10 338 1.6 6.4 0.00 0.00 0.00 88 1009.9
20260506020036 10 7 1.6 6.4 0.00 0.00 0.00 88 1009.9
20260506015532 10 360 1.6 4.8 0.00 0.00 0.00 87 1010.0
20260506015032 10 355 3.2 6.4 0.00 0.00 0.00 87 1010.0
20260506014522 10 356 4.8 9.7 0.00 0.00 0.00 87 1010.0
20260506014032 10 353 4.8 8.0 0.00 0.00 0.00 87 1010.0
20260506013520 10 2 4.8 9.7 0.00 0.00 0.00 87 1010.0
20260506013032 10 357 4.8 8.0 0.00 0.00 0.00 87 1010.0
20260506012532 10 10 3.2 8.0 0.00 0.00 0.00 86 1010.0
20260506012032 10 353 4.8 8.0 0.00 0.00 0.00 86 1010.0
20260506011532 10 358 3.2 9.7 0.00 0.00 0.00 86 1010.0
20260506011030 10 347 4.8 6.4 0.00 0.00 0.00 86 1010.0
20260506010531 10 351 3.2 6.4 0.00 0.00 0.00 86 1010.1
20260506010030 10 6 3.2 8.0 0.00 0.00 0.00 86 1010.1
20260506005522 10 358 4.8 8.0 0.00 0.00 0.00 85 1010.2
20260506005032 10 348 4.8 11.3 0.00 0.00 0.00 85 1010.2
20260506004532 10 14 4.8 9.7 0.00 0.00 0.00 85 1010.3
20260506004032 10 356 4.8 8.0 0.00 0.00 0.00 84 1010.3
20260506003532 10 347 4.8 8.0 0.00 0.00 0.00 84 1010.4
20260506003044 10 334 3.2 6.4 0.00 0.00 0.00 84 1010.5
20260506002544 10 350 4.8 8.0 0.00 0.00 0.00 84 1010.5
20260506002032 10 350 3.2 8.0 0.00 0.00 0.00 83 1010.5
20260506001524 10 360 4.8 8.0 0.00 0.00 0.00 83 1010.6
20260506001022 10 346 4.8 9.7 0.00 0.00 0.00 83 1010.6
20260506000530 10 357 3.2 9.7 0.00 0.00 0.00 83 1010.6
20260506000032 10 357 4.8 9.7 0.00 0.00 0.00 82 1010.6
20260505235532 10 12 3.2 8.0 0.00 0.00 0.00 82 1010.7
20260505235025 10 351 4.8 8.0 0.00 0.00 0.00 82 1010.7
20260505234530 10 347 3.2 8.0 0.00 0.00 0.00 82 1010.7
20260505234032 10 2 4.8 8.0 0.00 0.00 0.00 81 1010.7
20260505233525 10 12 4.8 9.7 0.00 0.03 0.00 81 1010.7
20260505233033 10 359 3.2 6.4 0.00 0.03 0.00 81 1010.7
20260505232532 10 353 3.2 9.7 0.00 0.03 0.00 81 1010.7
20260505232044 10 358 4.8 8.0 0.00 0.03 0.00 81 1010.8
20260505231532 10 358 4.8 11.3 0.00 0.08 0.00 81 1010.8
20260505231032 10 337 3.2 8.0 0.00 0.13 0.00 82 1010.9
20260505230532 10 15 3.2 6.4 0.00 0.18 0.00 82 1010.9
20260505230032 10 360 4.8 8.0 0.00 0.41 0.00 82 1010.9
20260505225532 10 355 4.8 9.7 0.00 0.51 0.00 82 1010.9
20260505225030 10 353 4.8 8.0 0.00 0.51 0.00 82 1010.9
20260505224532 10 356 3.2 6.4 0.00 0.53 0.00 83 1010.9
20260505224032 10 347 4.8 8.0 0.00 0.58 0.00 83 1011.0
20260505223524 10 356 3.2 8.0 0.00 0.64 0.00 83 1011.0
20260505223030 10 345 3.2 6.4 0.00 0.66 0.00 83 1011.1
20260505222532 10 11 4.8 9.7 0.00 0.69 0.00 83 1011.1
20260505222021 10 12 3.2 6.4 0.00 0.71 0.00 82 1011.1
20260505221532 10 350 4.8 9.7 0.00 0.79 0.00 82 1011.1
20260505221040 10 354 4.8 8.0 0.00 0.89 0.00 82 1011.1
20260505220544 10 350 4.8 8.0 0.00 0.99 0.00 82 1011.2
20260505220034 10 348 4.8 9.7 0.00 1.02 0.00 82 1011.2
20260505215532 10 2 3.2 8.0 0.00 1.02 1.02 82 1011.2
20260505215032 10 0 4.8 9.7 0.00 1.04 1.02 82 1011.2
20260505214530 10 1 3.2 8.0 0.00 1.09 1.02 82 1011.2